EXS9TL EGCC-LEPA

Flight info

Callsign EXS9TL
Flight time N/A
Altitude 37000
Route ASMIM DCT NOKIN P17 BEPHE DCT OSSEP DCT ELNIF DCT ZESPE DCT KLAKI DCT MANIG DCT BADUR DCT KORER UM616 TUPAR DCT CNA DCT SECHE DCT AGN DCT TOU DCT LOMRA DCT ROCAN DCT IBRAP DCT LUKEV N13 LORES
Aircraft B738/M-SDE2E3FGHIRWXY/LB1

Departure

Time N/A
Airport Manchester Airport (EGCC)

Arrival

Time 2026-05-05 12:10
Airport Palma de Mallorca Airport (LEPA)
Time Latitude Longitude Altitude Speed Heading
2026-05-05 10:33 48.33010 -2.78178 36941 ft 434 kts 163°
2026-05-05 10:34 48.27209 -2.75624 36938 ft 434 kts 163°
2026-05-05 10:34 48.21406 -2.73074 36932 ft 435 kts 163°
2026-05-05 10:35 48.15653 -2.70552 36936 ft 435 kts 163°
2026-05-05 10:35 48.09838 -2.68010 36912 ft 435 kts 163°
2026-05-05 10:36 48.04020 -2.65472 36915 ft 436 kts 163°
2026-05-05 10:36 47.98181 -2.62930 36933 ft 437 kts 163°
2026-05-05 10:37 47.92339 -2.60393 36924 ft 437 kts 163°
2026-05-05 10:37 47.86511 -2.57868 36905 ft 436 kts 163°
2026-05-05 10:38 47.80686 -2.55350 36904 ft 436 kts 163°
2026-05-05 10:38 47.74863 -2.52838 36910 ft 436 kts 163°
2026-05-05 10:39 47.69233 -2.49555 36918 ft 435 kts 148°
2026-05-05 10:39 47.64665 -2.43793 36929 ft 435 kts 131°
2026-05-05 10:40 47.60733 -2.36946 36923 ft 436 kts 130°
2026-05-05 10:40 47.56798 -2.30090 36906 ft 437 kts 131°
2026-05-05 10:41 47.52821 -2.23266 36906 ft 437 kts 131°
2026-05-05 10:41 47.48820 -2.16459 36907 ft 438 kts 131°
2026-05-05 10:42 47.42834 -2.06307 36915 ft 439 kts 131°
2026-05-05 10:43 47.38816 -1.99509 36904 ft 439 kts 131°
2026-05-05 10:43 47.34795 -1.92727 36915 ft 439 kts 131°
2026-05-05 10:44 47.30797 -1.85985 36920 ft 439 kts 132°
2026-05-05 10:44 47.26775 -1.79209 36902 ft 439 kts 132°
2026-05-05 10:45 47.22753 -1.72448 36918 ft 439 kts 131°
2026-05-05 10:45 47.18735 -1.65710 36922 ft 438 kts 132°
2026-05-05 10:46 47.14606 -1.59121 36901 ft 438 kts 138°
2026-05-05 10:46 47.10034 -1.53177 36897 ft 438 kts 140°
2026-05-05 10:47 47.05449 -1.47290 36904 ft 438 kts 139°
2026-05-05 10:47 47.00920 -1.41372 36906 ft 438 kts 139°
2026-05-05 10:48 46.96363 -1.35410 36910 ft 439 kts 139°
2026-05-05 10:48 46.91802 -1.29456 36912 ft 439 kts 139°
2026-05-05 10:49 46.87224 -1.23490 36894 ft 440 kts 139°
2026-05-05 10:49 46.82652 -1.17543 36917 ft 440 kts 139°
2026-05-05 10:50 46.78071 -1.11599 36905 ft 441 kts 139°
2026-05-05 10:50 46.73511 -1.05696 36899 ft 441 kts 139°
2026-05-05 10:51 46.68912 -0.99757 36905 ft 441 kts 140°
2026-05-05 10:51 46.64313 -0.93831 36892 ft 441 kts 140°
2026-05-05 10:52 46.59713 -0.87916 36894 ft 440 kts 140°
2026-05-05 10:52 46.55156 -0.82058 36883 ft 440 kts 140°
2026-05-05 10:53 46.50580 -0.76161 36898 ft 439 kts 140°
2026-05-05 10:53 46.45995 -0.70269 36891 ft 439 kts 140°
2026-05-05 10:54 46.40937 -0.65434 36901 ft 436 kts 157°
2026-05-05 10:54 46.35213 -0.62609 36896 ft 435 kts 164°
2026-05-05 10:55 46.29461 -0.60048 36894 ft 436 kts 164°
2026-05-05 10:55 46.23671 -0.57430 36897 ft 436 kts 163°
2026-05-05 10:56 46.17877 -0.54779 36901 ft 437 kts 163°
2026-05-05 10:56 46.12070 -0.52115 36910 ft 438 kts 163°
2026-05-05 10:57 46.06254 -0.49453 36916 ft 439 kts 164°
2026-05-05 10:57 46.00418 -0.46790 36907 ft 441 kts 163°
2026-05-05 10:58 45.94569 -0.44127 36903 ft 441 kts 163°
2026-05-05 10:58 45.88717 -0.41468 36920 ft 441 kts 164°
2026-05-05 10:59 45.82858 -0.38812 36922 ft 442 kts 164°
2026-05-05 10:59 45.77000 -0.36162 36923 ft 442 kts 164°
2026-05-05 11:00 45.71136 -0.33514 36930 ft 442 kts 164°
2026-05-05 11:00 45.65300 -0.30803 36936 ft 442 kts 159°
2026-05-05 11:01 45.59724 -0.27063 36942 ft 443 kts 155°
2026-05-05 11:01 45.54215 -0.23136 36929 ft 443 kts 155°
2026-05-05 11:02 45.48686 -0.19253 36939 ft 443 kts 156°
2026-05-05 11:02 45.43139 -0.15417 36937 ft 443 kts 156°
2026-05-05 11:03 45.37582 -0.11602 36944 ft 443 kts 156°
2026-05-05 11:03 45.32019 -0.07793 36949 ft 444 kts 156°
2026-05-05 11:04 45.26486 -0.04011 36948 ft 444 kts 156°
2026-05-05 11:04 45.20872 -0.00182 36940 ft 445 kts 156°
2026-05-05 11:05 45.15336 0.03586 36937 ft 445 kts 157°
2026-05-05 11:05 45.09756 0.07377 36947 ft 445 kts 157°
2026-05-05 11:06 45.04188 0.11151 36944 ft 445 kts 157°
2026-05-05 11:06 44.98606 0.14926 36938 ft 445 kts 158°
2026-05-05 11:07 44.93028 0.18690 36953 ft 444 kts 158°
2026-05-05 11:07 44.87452 0.22445 36957 ft 444 kts 158°
2026-05-05 11:08 44.81878 0.26190 36960 ft 444 kts 158°
2026-05-05 11:08 44.76307 0.29925 36959 ft 443 kts 158°
2026-05-05 11:09 44.70732 0.33655 36960 ft 444 kts 158°
2026-05-05 11:09 44.65154 0.37379 36955 ft 444 kts 158°
2026-05-05 11:10 44.59573 0.41098 36941 ft 444 kts 158°
2026-05-05 11:10 44.53997 0.44805 36955 ft 443 kts 158°
2026-05-05 11:11 44.48427 0.48501 36953 ft 443 kts 158°
2026-05-05 11:11 44.42860 0.52185 36948 ft 442 kts 158°
2026-05-05 11:12 44.37297 0.55833 36949 ft 442 kts 159°
2026-05-05 11:12 44.31732 0.59466 36951 ft 441 kts 159°
2026-05-05 11:13 44.26171 0.63094 36969 ft 441 kts 159°
2026-05-05 11:13 44.20609 0.66718 36958 ft 442 kts 159°
2026-05-05 11:14 44.15076 0.70315 36969 ft 442 kts 159°
2026-05-05 11:14 44.09502 0.73931 36958 ft 442 kts 159°
2026-05-05 11:15 44.03929 0.77540 36948 ft 442 kts 159°
2026-05-05 11:15 43.98352 0.81145 36955 ft 442 kts 159°
2026-05-05 11:16 43.92780 0.84748 36963 ft 442 kts 157°
2026-05-05 11:16 43.90142 0.86995 36958 ft 449 kts 146°
2026-05-05 11:16 43.87800 0.89884 36972 ft 454 kts 137°
2026-05-05 11:17 43.84061 0.97013 36974 ft 460 kts 127°
2026-05-05 11:17 43.80628 1.04516 36955 ft 461 kts 127°
2026-05-05 11:18 43.77152 1.11964 36972 ft 461 kts 128°
2026-05-05 11:18 43.73626 1.19396 36960 ft 462 kts 128°
2026-05-05 11:19 43.70086 1.26832 36970 ft 463 kts 128°
2026-05-05 11:19 43.66428 1.34140 36966 ft 461 kts 133°
2026-05-05 11:20 43.63087 1.39841 36973 ft 459 kts 135°
2026-05-05 11:20 43.59003 1.46637 36964 ft 461 kts 135°
2026-05-05 11:21 43.54942 1.53489 36927 ft 461 kts 135°
2026-05-05 11:21 43.50907 1.60354 36950 ft 461 kts 135°
2026-05-05 11:22 43.46871 1.67218 36957 ft 461 kts 135°
2026-05-05 11:22 43.42836 1.74056 36955 ft 460 kts 135°
2026-05-05 11:23 43.38800 1.80881 36951 ft 459 kts 135°
2026-05-05 11:23 43.34303 1.86823 36961 ft 437 kts 159°
2026-05-05 11:23 43.31538 1.88395 36950 ft 425 kts 172°
2026-05-05 11:24 43.28662 1.89035 36968 ft 415 kts 182°
2026-05-05 11:24 43.22899 1.89514 36957 ft 416 kts 182°
2026-05-05 11:25 43.17111 1.89985 36947 ft 417 kts 182°
2026-05-05 11:25 43.11307 1.90512 36959 ft 418 kts 182°
2026-05-05 11:26 43.05488 1.91065 36932 ft 419 kts 182°
2026-05-05 11:26 42.99670 1.91624 36905 ft 419 kts 182°
2026-05-05 11:27 42.93856 1.92181 36938 ft 418 kts 182°
2026-05-05 11:27 42.88063 1.92733 36935 ft 417 kts 182°
2026-05-05 11:28 42.82278 1.93283 36936 ft 416 kts 182°
2026-05-05 11:28 42.76504 1.93830 36936 ft 415 kts 182°
2026-05-05 11:29 42.70753 1.94374 36932 ft 414 kts 182°
2026-05-05 11:29 42.65037 1.95407 36933 ft 419 kts 172°
2026-05-05 11:30 42.59411 1.97513 36915 ft 420 kts 172°
2026-05-05 11:30 42.53808 1.99569 36920 ft 419 kts 173°
2026-05-05 11:31 42.48133 2.01617 36921 ft 419 kts 173°
2026-05-05 11:31 42.42487 2.03644 36891 ft 419 kts 172°
2026-05-05 11:32 42.36885 2.05658 36895 ft 418 kts 173°
2026-05-05 11:32 42.31294 2.07643 36913 ft 419 kts 173°
2026-05-05 11:33 42.25654 2.09642 36928 ft 420 kts 173°
2026-05-05 11:33 42.19980 2.11651 36917 ft 422 kts 173°
2026-05-05 11:34 42.14296 2.13662 36906 ft 423 kts 173°
2026-05-05 11:34 42.08606 2.15676 36905 ft 423 kts 173°
2026-05-05 11:35 42.02917 2.17676 36936 ft 424 kts 173°
2026-05-05 11:35 41.97208 2.19686 36911 ft 423 kts 173°
2026-05-05 11:36 41.91528 2.21674 36928 ft 421 kts 173°
2026-05-05 11:36 41.85895 2.23653 36841 ft 410 kts 173°
2026-05-05 11:36 41.83148 2.24619 36370 ft 407 kts 174°
2026-05-05 11:37 41.80424 2.25570 36057 ft 401 kts 174°
2026-05-05 11:37 41.77736 2.26509 35698 ft 398 kts 174°
2026-05-05 11:37 41.75074 2.27438 35431 ft 391 kts 175°
2026-05-05 11:37 41.72472 2.28352 35173 ft 386 kts 175°
2026-05-05 11:38 41.69886 2.29257 34868 ft 382 kts 175°
2026-05-05 11:38 41.67322 2.30151 34494 ft 379 kts 175°
2026-05-05 11:38 41.64777 2.31037 34170 ft 377 kts 175°
2026-05-05 11:38 41.62255 2.31914 33801 ft 374 kts 175°
2026-05-05 11:39 41.59746 2.32787 33406 ft 371 kts 175°
2026-05-05 11:39 41.57256 2.33653 33036 ft 368 kts 176°
2026-05-05 11:39 41.54790 2.34510 32664 ft 364 kts 176°
2026-05-05 11:39 41.52389 2.35346 32342 ft 359 kts 176°
2026-05-05 11:40 41.49980 2.36182 31994 ft 356 kts 176°
2026-05-05 11:40 41.47595 2.37009 31651 ft 353 kts 177°
2026-05-05 11:40 41.45197 2.37839 31307 ft 350 kts 177°
2026-05-05 11:40 41.42885 2.38638 30983 ft 347 kts 177°
2026-05-05 11:41 41.40554 2.39444 30661 ft 345 kts 177°
2026-05-05 11:41 41.38210 2.40253 30332 ft 342 kts 177°
2026-05-05 11:41 41.35911 2.41046 30005 ft 340 kts 177°
2026-05-05 11:41 41.33627 2.41834 29629 ft 338 kts 177°
2026-05-05 11:42 41.31390 2.42606 29261 ft 334 kts 178°
2026-05-05 11:42 41.29162 2.43376 28962 ft 329 kts 178°
2026-05-05 11:42 41.26955 2.44137 28631 ft 326 kts 178°
2026-05-05 11:42 41.24771 2.44889 28304 ft 323 kts 178°
2026-05-05 11:43 41.22607 2.45633 27983 ft 319 kts 178°
2026-05-05 11:43 41.20462 2.46369 27657 ft 318 kts 178°
2026-05-05 11:43 41.18327 2.47100 27347 ft 316 kts 178°
2026-05-05 11:43 41.16195 2.47828 27026 ft 318 kts 177°
2026-05-05 11:44 41.14016 2.48564 26724 ft 329 kts 177°
2026-05-05 11:44 41.11771 2.49322 26384 ft 335 kts 176°
2026-05-05 11:44 41.09519 2.50094 26011 ft 333 kts 176°
2026-05-05 11:44 41.07283 2.50865 25684 ft 331 kts 176°
2026-05-05 11:45 41.05070 2.51628 25356 ft 328 kts 176°
2026-05-05 11:45 41.02869 2.52384 25030 ft 326 kts 176°
2026-05-05 11:45 41.00682 2.53134 24709 ft 323 kts 176°
2026-05-05 11:45 40.98510 2.53876 24388 ft 321 kts 176°
2026-05-05 11:46 40.96365 2.54611 24277 ft 314 kts 176°
2026-05-05 11:46 40.94282 2.55327 24236 ft 305 kts 176°
2026-05-05 11:46 40.92269 2.56020 24213 ft 293 kts 176°
2026-05-05 11:46 40.90321 2.56687 24077 ft 286 kts 177°
2026-05-05 11:47 40.88382 2.57341 23576 ft 293 kts 176°
2026-05-05 11:47 40.86374 2.58008 23020 ft 304 kts 175°
2026-05-05 11:47 40.84269 2.58706 22499 ft 318 kts 175°
2026-05-05 11:47 40.82098 2.59436 21947 ft 325 kts 174°
2026-05-05 11:48 40.77655 2.60946 20885 ft 333 kts 173°
2026-05-05 11:48 40.75402 2.61714 20364 ft 336 kts 173°
2026-05-05 11:48 40.73135 2.62485 19853 ft 338 kts 173°
2026-05-05 11:49 40.70842 2.63263 19341 ft 341 kts 173°
2026-05-05 11:49 40.68544 2.64042 18847 ft 343 kts 172°
2026-05-05 11:49 40.66228 2.64826 18356 ft 344 kts 172°
2026-05-05 11:49 40.63901 2.65613 17814 ft 346 kts 172°
2026-05-05 11:50 40.61565 2.66402 17264 ft 347 kts 172°
2026-05-05 11:50 40.59223 2.67192 16709 ft 348 kts 171°
2026-05-05 11:50 40.56874 2.67985 16165 ft 349 kts 171°
2026-05-05 11:50 40.54536 2.68774 15848 ft 343 kts 171°
2026-05-05 11:51 40.52249 2.69546 15584 ft 336 kts 171°
2026-05-05 11:51 40.50010 2.70334 15334 ft 332 kts 167°
2026-05-05 11:51 40.47914 2.71608 15077 ft 331 kts 157°
2026-05-05 11:51 40.45921 2.73084 14833 ft 327 kts 156°
2026-05-05 11:52 40.43970 2.74556 14580 ft 322 kts 156°
2026-05-05 11:52 40.42040 2.76000 14342 ft 317 kts 156°
2026-05-05 11:52 40.40133 2.77409 14093 ft 312 kts 156°
2026-05-05 11:52 40.38250 2.78788 13850 ft 308 kts 156°
2026-05-05 11:53 40.36389 2.80140 13602 ft 304 kts 156°
2026-05-05 11:53 40.34552 2.81470 13332 ft 300 kts 156°
2026-05-05 11:53 40.32736 2.82781 13058 ft 296 kts 156°
2026-05-05 11:53 40.30941 2.84076 12788 ft 293 kts 156°
2026-05-05 11:54 40.29166 2.85354 12549 ft 290 kts 156°
2026-05-05 11:54 40.27406 2.86621 12284 ft 288 kts 156°
2026-05-05 11:54 40.25658 2.87879 12024 ft 286 kts 156°
2026-05-05 11:54 40.23919 2.89128 11772 ft 284 kts 156°
2026-05-05 11:55 40.22189 2.90371 11523 ft 283 kts 156°
2026-05-05 11:55 40.20465 2.91609 11264 ft 282 kts 155°
2026-05-05 11:55 40.18746 2.92845 11019 ft 282 kts 155°
2026-05-05 11:55 40.17030 2.94077 10777 ft 281 kts 155°
2026-05-05 11:56 40.15317 2.95308 10540 ft 281 kts 155°
2026-05-05 11:56 40.13603 2.96537 10295 ft 281 kts 155°
2026-05-05 11:56 40.11898 2.97761 10117 ft 277 kts 155°
2026-05-05 11:56 40.10228 2.98960 9990 ft 270 kts 155°
2026-05-05 11:57 40.08617 3.00116 9785 ft 267 kts 155°
2026-05-05 11:57 40.06992 3.01280 9511 ft 266 kts 155°
2026-05-05 11:57 40.05375 3.02436 9243 ft 264 kts 155°
2026-05-05 11:57 40.03767 3.03586 8984 ft 263 kts 154°
2026-05-05 11:58 40.02167 3.04730 8724 ft 262 kts 154°
2026-05-05 11:58 40.00575 3.05869 8468 ft 260 kts 154°
2026-05-05 11:58 39.98998 3.06996 8215 ft 259 kts 154°
2026-05-05 11:58 39.97424 3.08120 7954 ft 257 kts 154°
2026-05-05 11:59 39.95857 3.09237 7695 ft 256 kts 154°
2026-05-05 11:59 39.94300 3.10347 7455 ft 254 kts 155°
2026-05-05 11:59 39.92635 3.10977 7169 ft 249 kts 184°
2026-05-05 11:59 39.90957 3.10535 6916 ft 247 kts 201°
2026-05-05 12:00 39.89395 3.09714 6628 ft 238 kts 204°
2026-05-05 12:00 39.87907 3.08853 6399 ft 232 kts 205°
2026-05-05 12:00 39.86439 3.07998 6137 ft 230 kts 205°
2026-05-05 12:00 39.85004 3.07169 5889 ft 220 kts 205°
2026-05-05 12:01 39.83635 3.06385 5650 ft 210 kts 205°
2026-05-05 12:01 39.82332 3.05643 5416 ft 199 kts 204°
2026-05-05 12:01 39.81094 3.04942 5255 ft 190 kts 203°
2026-05-05 12:01 39.79901 3.04269 5056 ft 184 kts 204°
2026-05-05 12:02 39.78742 3.03615 4884 ft 180 kts 204°
2026-05-05 12:02 39.77586 3.02969 4767 ft 182 kts 202°
2026-05-05 12:02 39.76404 3.02350 4688 ft 184 kts 203°
2026-05-05 12:02 39.75217 3.01777 4625 ft 181 kts 202°
2026-05-05 12:03 39.74026 3.01216 4548 ft 183 kts 202°
2026-05-05 12:03 39.72826 3.00654 4470 ft 183 kts 202°
2026-05-05 12:03 39.71624 3.00096 4378 ft 185 kts 202°
2026-05-05 12:03 39.70414 2.99512 4250 ft 186 kts 202°
2026-05-05 12:04 39.69211 2.98947 4085 ft 182 kts 201°
2026-05-05 12:04 39.68021 2.98360 3879 ft 182 kts 202°
2026-05-05 12:04 39.66887 2.97678 3683 ft 180 kts 212°
2026-05-05 12:04 39.65808 2.96831 3485 ft 183 kts 212°
2026-05-05 12:05 39.64805 2.95847 3265 ft 180 kts 234°
2026-05-05 12:05 39.64426 2.94912 3175 ft 176 kts 245°
2026-05-05 12:05 39.63805 2.93566 3068 ft 174 kts 235°
2026-05-05 12:05 39.63138 2.92251 2853 ft 172 kts 236°
2026-05-05 12:06 39.62524 2.90973 2611 ft 161 kts 236°
2026-05-05 12:06 39.61961 2.89784 2421 ft 152 kts 236°
2026-05-05 12:06 39.61411 2.88622 2215 ft 152 kts 237°
2026-05-05 12:06 39.60861 2.87457 2020 ft 153 kts 236°
2026-05-05 12:07 39.60310 2.86287 1832 ft 152 kts 237°
2026-05-05 12:07 39.59758 2.85114 1632 ft 153 kts 236°
2026-05-05 12:07 39.59210 2.83938 1378 ft 150 kts 239°
2026-05-05 12:07 39.58679 2.82824 1265 ft 143 kts 232°
2026-05-05 12:08 39.58142 2.81720 1039 ft 145 kts 239°
2026-05-05 12:08 39.57627 2.80594 840 ft 146 kts 237°
2026-05-05 12:08 39.57101 2.79478 648 ft 142 kts 237°
2026-05-05 12:08 39.56590 2.78383 414 ft 142 kts 238°
2026-05-05 12:09 39.56083 2.77307 289 ft 140 kts 236°
2026-05-05 12:09 39.55571 2.76227 96 ft 141 kts 239°
2026-05-05 12:09 39.55074 2.75169 37 ft 124 kts 238°
2026-05-05 12:09 39.54700 2.74378 36 ft 82 kts 240°
2026-05-05 12:10 39.54483 2.73920 36 ft 38 kts 239°
2026-05-05 12:10 39.54438 2.73781 37 ft 13 kts 294°
2026-05-05 12:10 39.54499 2.73715 37 ft 9 kts 328°
2026-05-05 12:10 39.54557 2.73678 37 ft 9 kts 354°
2026-05-05 12:11 39.54602 2.73730 37 ft 9 kts 61°
2026-05-05 12:11 39.54634 2.73800 37 ft 9 kts 59°
2026-05-05 12:11 39.54665 2.73867 37 ft 9 kts 58°
2026-05-05 12:11 39.54696 2.73932 37 ft 8 kts 58°
2026-05-05 12:12 39.54727 2.73996 35 ft 8 kts 58°
2026-05-05 12:12 39.54756 2.74057 37 ft 8 kts 58°
2026-05-05 12:12 39.54788 2.74112 37 ft 8 kts 39°
2026-05-05 12:12 39.54841 2.74113 37 ft 9 kts 333°
2026-05-05 12:13 39.54896 2.74071 37 ft 10 kts 329°
2026-05-05 12:13 39.54958 2.74023 37 ft 11 kts 329°
2026-05-05 12:13 39.55026 2.73970 37 ft 12 kts 328°
2026-05-05 12:13 39.55100 2.73910 37 ft 13 kts 328°
2026-05-05 12:14 39.55179 2.73846 37 ft 14 kts 328°
2026-05-05 12:14 39.55264 2.73782 37 ft 15 kts 329°
2026-05-05 12:14 39.55349 2.73714 37 ft 14 kts 328°
2026-05-05 12:14 39.55431 2.73650 37 ft 13 kts 328°
2026-05-05 12:15 39.55491 2.73601 36 ft 4 kts 319°
2026-05-05 12:15 39.55496 2.73563 37 ft 4 kts 256°
2026-05-05 12:15 39.55482 2.73526 36 ft 5 kts 239°
2026-05-05 12:15 39.55461 2.73481 36 ft 7 kts 239°
2026-05-05 12:16 39.55432 2.73419 36 ft 9 kts 238°
2026-05-05 12:16 39.55395 2.73341 37 ft 11 kts 238°
2026-05-05 12:16 39.55354 2.73255 37 ft 11 kts 239°
2026-05-05 12:16 39.55314 2.73170 36 ft 11 kts 239°
2026-05-05 12:17 39.55276 2.73088 37 ft 11 kts 237°
2026-05-05 12:17 39.55236 2.73010 37 ft 10 kts 237°
2026-05-05 12:17 39.55209 2.72954 37 ft 4 kts 229°
2026-05-05 12:17 39.55182 2.72950 37 ft 4 kts 167°
2026-05-05 12:18 39.55154 2.72961 37 ft 4 kts 162°
2026-05-05 12:18 39.55130 2.72971 36 ft 2 kts 161°
2026-05-05 12:18 39.55129 2.72971 36 ft 0 kts 161°